Regional Weather Roundup
Issued by NWS Wakefield, VA

Home | Current Version | Previous Version | Graphics & Text | Print | Product List | Glossary On
Versions: 1 2 3 4 5 6 7 8 9 10 11 12 13 14 15 16 17 18 19 20 21 22 23 24 25 26 27
000
ASUS41 KAKQ 270815
RWRAKQ

REGIONAL WEATHER ROUNDUP
NATIONAL WEATHER SERVICE WAKEFIELD VA
400 AM EDT MON MAR 27 2017

Note: "fair" indicates few or no clouds below 12,000 feet with no
significant weather and/or obstructions to visibility. * = Denotes
station may not report precipitation (e.g., rain,snow,etc.),
thunder or fog.

VAZ042-051-052>054-056-270900-
NORTHERN VIRGINIA

CITY           SKY/WX    TMP DP  RH WIND       PRES   REMARKS
WASH NATIONAL  CLOUDY    47  46  97 E3        30.12F FOG
DULLES         DRZL/FOG  46  45  96 SE6       30.10F VSB 1/2
FORT BELVOIR   CLOUDY    46  45  96 CALM      30.11F FOG
QUANTICO       FOG       48  48 100 NE3       30.13F VSB 1/2
FREDERICKSBRG* FOG       49  49 100 CALM      30.10F VSB 3/4
STAFFORD*      FOG       47  47 100 CALM      30.15F VSB 1/2
WARRENTON      FOG       48  46  91 CALM      30.11S VSB 1/2
CULPEPER*      FOG       49  49 100 CALM      30.11F VSB 1/2
MANASSAS*      FOG       46  32  58 CALM      30.12F VSB 3/4
LEESBURG*      FOG       46  46 100 CALM      30.11F VSB 1/2
WINCHESTER     DRIZZLE   45  45 100 CALM      30.06F
FRONT ROYAL*   CLOUDY    46  46 100 CALM      30.05F
LURAY*         LGT RAIN  50  50 100 CALM      30.06F
$$

VAZ048-049-060>072-079>083-270900-
CENTRAL AND SOUTH CENTRAL VIRGINIA

CITY           SKY/WX    TMP DP  RH WIND       PRES   REMARKS
RICHMOND       CLOUDY    52  52 100 S5        30.10F
CHESTERFIELD*  CLOUDY   N/A N/A N/A CALM      30.11F
PETERSBURG*    PTCLDY    49  48  95 CALM      30.11F
HANOVER        CLOUDY    52  48  86 CALM      30.11F
TAPPAHANNOCK*  CLOUDY    50  50 100 CALM      30.12F
QUINTON*       PTSUNNY   51  51 100 E5        30.10F
CHARLOTTSVILLE CLOUDY    50  49  96 CALM      30.10F FOG
GORDONSVILLE*  FOG       48  48 100 CALM      30.10F VSB 1
ORANGE*        FOG       46  46 100 CALM      30.11F VSB 1/4
LOUISA*        FOG       54  52  94 CALM      30.09F VSB 1/4
BUMPASS*       CLOUDY    51  51 100 CALM      30.10F
FARMVILLE*     LGT RAIN  53  53 100 CALM      30.09F
CREWE*         PTSUNNY   55  55 100 CALM      30.10S
FORT PICKETT*  PTSUNNY   58  53  84 S7        30.10F
CHASE CITY*    CLOUDY    60  58  94 CALM      30.10F
CLARKSVILLE*   CLOUDY    61  55  82 CALM      30.09F
SOUTH HILL*    CLEAR     57  53  87 S7        30.16F
LAWRENCEVILLE* PTSUNNY   58  53  81 S7        30.11F
EMPORIA*       MOCLDY    55  54  94 CALM      30.14S
$$

VAZ088>098-270900-
SOUTHEAST VIRGINIA

CITY           SKY/WX    TMP DP  RH WIND       PRES   REMARKS
NORFOLK        CLEAR     56  51  84 S7        30.13F
VIRGINIA BEACH MOCLDY    57  51  80 S6        30.13F
NORFOLK NAVAL  CLEAR     58  52  80 S5        30.14F
WEST POINT*    MOCLDY    53  52  95 CALM      30.13F
SALUDA*        FAIR      48  48 100 CALM      30.12F
NEWPORT NEWS   CLEAR     58  53  84 S7        30.12F
LANGLEY AFB    PTCLDY    57  54  89 S6        30.12F
FORT EUSTIS    PTCLDY    56  52  85 S6        30.10F
WILLIAMSBURG*  CLEAR     55  54  94 CALM      30.13F
HR EXEC AP*    FAIR      55  50  82 S3        30.12F
FRANKLIN*      CLEAR     55  52  92 CALM      30.14S
US460-WAKEFLD  CLEAR     52  50  93 CALM      30.12F
$$

VAZ020-022-025-037-045-270900-
WEST CENTRAL AND SOUTHWEST VIRGINIA

CITY           SKY/WX    TMP DP  RH WIND       PRES   REMARKS
STAUNTON*      LGT RAIN  50  48  95 W3        30.08S
WAYNESBORO*    CLOUDY    49  49 100 CALM      30.06F
HOT SPRINGS VA CLOUDY    52  52 100 CALM      30.08F FOG
LYNCHBURG      CLOUDY    50  50 100 CALM      30.11F FOG
DANVILLE       LGT RAIN  56  56 100 CALM      30.10F
SOUTH BOSTON*  CLOUDY    62  56  82 SW3       30.10S
MARTINSVILLE   LGT RAIN  55  55  99 CALM      30.12F
ROANOKE        CLOUDY    54  54 100 SE6       30.10F
BLACKSBURG     CLOUDY    58  55  89 CALM      30.10F
DUBLIN*        CLOUDY    59  56  89 S3        30.09F
MARION*        CLOUDY    55  54  95 CALM      30.09F
HILLSVILLE*    FOG       55  55 100 CALM      30.08F VSB 3/4
RICHLANDS*     FAIR      58  52  81 SW6       30.06S
WISE*          CLOUDY    57  50  77 S8        30.07S
ABINGDON*      MOCLDY    57  54  89 CALM      30.06S
$$

MDZ021>025-VAZ099-100-270900-
SOUTHERN MARYLAND AND THE DELMARVA PENINSULA

CITY           SKY/WX    TMP DP  RH WIND       PRES   REMARKS
PATUXENT RIVER FOG       47  47 100 SE6       30.12F VSB 1/2
BAY BRIDGE APT FOG       45  45 100 E5        30.13F VSB 3/4
LEONARDTOWN    CLOUDY    46  46 100 CALM      30.12F
DOVER          FOG       45  45 100 E7        30.13F VSB 1/2
GEORGETOWN     CLOUDY    47  46  97 SE3       30.14F FOG
EASTON         FOG       47  46  95 SE5       30.16F VSB 3/4
CAMBRIDGE      FOG       46  46 100 SE6       30.12F VSB 1/4
SALISBURY      FOG       46  46 100 E3        30.13F VSB 1/2
OCEAN CITY     CLOUDY    44  43  96 E3        30.15F FOG
WALLOPS ISLAND PTCLDY    46  46 100 CALM      30.15S
ACCOMACK*      PTCLDY    50  49  95 S5        30.13F
$$

NCZ012>017-030>032-270900-
NORTH CENTRAL AND EASTERN NORTH CAROLINA

CITY           SKY/WX    TMP DP  RH WIND       PRES   REMARKS
ROANOKE RAPIDS FAIR      57  54  88 CALM      30.12S
RALEIGH        MOCLDY    62  54  74 S8        30.11F
ELIZABETH CITY CLEAR     53  52  96 S3        30.15
AHOSKIE*         N/A     53  52  97 CALM      30.13F
EDENTON*       CLOUDY    60  56  85 CALM      30.14F
CURRITUCK*     PTCLDY    56  56 100 CALM      30.15S
KILL DEVIL HLS NOT AVBL
MANTEO         CLEAR     57  54  89 S3        30.16S
CAPE HATTERAS  CLEAR     66  52  60 S8        30.15F
TARBORO*       NOT AVBL
GOLDSBORO      CLEAR     57  57 100 CALM      30.11F
WASHINGTON     CLEAR     58  55  90 CALM      30.14F
GREENVILLE     CLEAR     55  55 100 CALM      30.14F
NEW BERN       PTCLDY    50  50 100 CALM      30.15S FOG
WILMINGTON     CLEAR     51  51 100 CALM      30.12F
$$

VAZ048-270900-
ELSEWHERE

CITY           SKY/WX    TMP DP  RH WIND       PRES   REMARKS
HARRISBURG PA  LGT RAIN  42  41  96 E6        30.12F FOG
BALTIMORE      FOG       44  44 100 E6        30.12F VSB 1/4
ANNAPOLIS      FOG       46  46 100 E5        30.12F VSB 1/2
ANDREWS AFB    FOG       45  45 100 E7        30.09F VSB 3/4
PHILADELPHIA   FOG       42  41  96 E9        30.16F VSB 3/4
HENDERSON NC   MOCLDY    57  51  80 S7        30.10F
GREENSBORO     CLOUDY    59  58  96 S7        30.09F
ROCKY MOUNT    PTCLDY    56  55  97 S3        30.12F
$$

VAZ100-270900-
MARINE

STATION/POSITION TIME  TEMP    WIND        PRES    WAVE   SWELL
                       AIR SEA DIR/SP/G            HT/PER HT/PER
                 (UTC) (F)     (DEG/KT/KT) (MB)    (FT/S) (FT/S)
CAPE MAY NJ      0748   45 44  100/  8/ 10 1020.4F
LEWES DE         0748   45 45  110/  4/  5 1020.7F
OCEAN-CITY-INLET 0748   44 45   90/  3/  4 1021.2F
WACHAPREAGUE VA  0742   51 55  210/  4/  6 1020.2F
THOMAS POINT MD  0800   45 45   90/  5/  5   N/A
GOOSES REEF MD   0800   46 46  130/  2/  2 1020.6
COVE POINT MD    0742   46     170/  5/  5 1020.6F
SOLOMONS ISLAND  0742   47 47  120/  6/  7   N/A
BISHOPS HEAD MD  0748   47 50   60/  2/  3 1020.5F
PINEY POINT MD   0748          140/  6/  7   N/A
POTOMAC MD       0800   46 46  130/  6/  6 1019.0    0
CAMBRIDGE MD     0748   47 46  110/  5/  6 1019.5F
LEWISETTA VA     0742   47 50  130/  6/  6 1019.6F
RAPPAHANNOCK LGT 0748          150/ 10/ 11 1020.7F
STINGRAY PT      0750   50     170/  4/  4 1020.5F
YORK RVR RNG VA  0742   55     190/ 10/ 11 1019.4F
YORKTOWN VA      0742   58 50  190/  6/  8 1019.6F
JAMESTOWN VA     0800   56 54  100/  6/  6   N/A     0
DOMINION TERM VA 0742   56     160/  5/  6 1020.2F
KIPTOPEKE VA     0748      50  160/  9/  9   N/A
CHES BAY BRIDGE  0742   56 49  200/  7/ 10 1020.1F
CAPE HENRY VA    0742   60     170/  8/ 10   N/A
WILLOUBY STN VA  0742   60     190/ 11/ 12 1021.0F
S CRANEY ISL VA  0742   57     200/  5/  7 1020.1F
CAPE HENRY BUOY  0742      51                N/A     4/ 7
CAPE CHARLES BUO 0751      48                N/A     3/ 7
OFFSHORE WE BUOY 0751      50                N/A     4/ 7   2/11
64NM E OF VA BCH 0750   55 51  170/  8/ 10 1020.9F   4/ 8   3/ 8
DUCK PIER NC     0742   59 51  180/  8/ 10 1020.4F
44100 DUCK FRF   0735      50                N/A     4/ 7   2/18
44056 DUCK FRF   0730      50                N/A     3/ 7
OREGON INLET NC  0742   58 56  130/  4/  5 1021.0F
HATTERAS NC      0742   67 60  160/  8/ 10 1020.7F
DIAMOND SHLS NC  0750   69 76  170/ 14/ 17 1021.2F   4/10   3/10
CAPE LOOKOUT NC  0800   66     150/  8/  8 1020.1F
$$




USA.gov is the U.S. government's official web portal to all federal, state and local government web resources and services.